When you browse on this site, cookies collect data to enhance your experience and personalize the content and advertising you see.
Visit our Privacy Policy to learn more. By continuing to use the site, you agree to this use of cookies and data.
  • In France
  • List of Countries
  • For 7 days
  • Water Temperature
  • Weather Map
  • Weather Widgets
  • user-avatar
    Login

    Hourly Weather Karlsruhe

    Today, 19 September, Thursday

    Time Temperature Precipitation Wind Pressure Humidity
    00:00 +10°C° 0 mm 2 mps 759 mmHg 67%
    01:00 +10°C° 0 mm 2 mps 759 mmHg 67%
    02:00 +10°C° 0 mm 2 mps 759 mmHg 68%
    03:00 +9°C° 0 mm 2 mps 759 mmHg 69%
    04:00 +9°C° 0 mm 2 mps 759 mmHg 70%
    05:00 +9°C° 0 mm 2 mps 759 mmHg 71%
    06:00 +9°C° 0 mm 2 mps 759 mmHg 72%
    07:00 +9°C° 0 mm 2 mps 760 mmHg 73%
    08:00 +11°C° 0 mm 3 mps 760 mmHg 66%
    09:00 +13°C° 0 mm 3 mps 760 mmHg 58%
    10:00 +15°C° 0 mm 4 mps 760 mmHg 51%
    11:00 +17°C° 0 mm 4 mps 760 mmHg 47%
    12:00 +17°C° 0 mm 4 mps 760 mmHg 43%
    13:00 +18°C° 0 mm 4 mps 760 mmHg 39%
    14:00 +18°C° 0 mm 4 mps 760 mmHg 39%
    15:00 +18°C° 0 mm 4 mps 759 mmHg 39%
    16:00 +18°C° 0 mm 4 mps 759 mmHg 39%
    17:00 +16°C° 0 mm 3 mps 759 mmHg 44%
    18:00 +13°C° 0 mm 3 mps 760 mmHg 50%
    19:00 +13°C° 0 mm 2 mps 760 mmHg 56%
    20:00 +12°C° 0 mm 2 mps 760 mmHg 59%
    21:00 +10°C° 0 mm 2 mps 760 mmHg 62%
    22:00 +9°C° 0 mm 2 mps 760 mmHg 64%
    23:00 +9°C° 0 mm 2 mps 761 mmHg 67%

    Tomorrow, 20 September, Friday

    Time Temperature Precipitation Wind Pressure Humidity
    00:00 +9°C° 0 mm 2 mps 761 mmHg 69%
    01:00 +8°C° 0 mm 2 mps 761 mmHg 71%
    02:00 +8°C° 0 mm 2 mps 760 mmHg 72%
    03:00 +8°C° 0 mm 2 mps 760 mmHg 73%
    04:00 +7°C° 0 mm 2 mps 760 mmHg 74%
    05:00 +8°C° 0 mm 2 mps 760 mmHg 73%
    06:00 +8°C° 0 mm 2 mps 760 mmHg 73%
    07:00 +8°C° 0 mm 2 mps 760 mmHg 73%
    08:00 +10°C° 0 mm 3 mps 760 mmHg 64%
    09:00 +12°C° 0 mm 3 mps 760 mmHg 56%
    10:00 +14°C° 0 mm 4 mps 759 mmHg 48%
    11:00 +17°C° 0 mm 4 mps 759 mmHg 44%
    12:00 +18°C° 0 mm 4 mps 758 mmHg 40%
    13:00 +20°C° 0 mm 4 mps 758 mmHg 36%
    14:00 +20°C° 0 mm 4 mps 758 mmHg 37%
    15:00 +20°C° 0 mm 4 mps 757 mmHg 38%
    16:00 +20°C° 0 mm 4 mps 757 mmHg 38%
    17:00 +18°C° 0 mm 4 mps 757 mmHg 45%
    18:00 +16°C° 0 mm 3 mps 757 mmHg 52%
    19:00 +13°C° 0 mm 3 mps 757 mmHg 60%
    20:00 +12°C° 0 mm 3 mps 757 mmHg 62%
    21:00 +12°C° 0 mm 3 mps 757 mmHg 64%
    22:00 +12°C° 0 mm 2 mps 757 mmHg 66%
    23:00 +12°C° 0 mm 2 mps 756 mmHg 66%

    Day after tomorrow, 21 September, Saturday

    Time Temperature Precipitation Wind Pressure Humidity
    00:00 +10°C° 0 mm 2 mps 756 mmHg 67%
    01:00 +10°C° 0 mm 2 mps 756 mmHg 68%
    02:00 +10°C° 0 mm 2 mps 756 mmHg 68%
    03:00 +9°C° 0 mm 3 mps 755 mmHg 69%
    04:00 +9°C° 0 mm 3 mps 755 mmHg 70%
    05:00 +9°C° 0 mm 2 mps 755 mmHg 69%
    06:00 +9°C° 0 mm 2 mps 755 mmHg 69%
    07:00 +9°C° 0 mm 2 mps 754 mmHg 68%
    08:00 +12°C° 0 mm 2 mps 754 mmHg 61%
    09:00 +15°C° 0 mm 2 mps 754 mmHg 53%
    10:00 +17°C° 0 mm 2 mps 754 mmHg 45%
    11:00 +19°C° 0 mm 2 mps 753 mmHg 42%
    12:00 +21°C° 0 mm 2 mps 753 mmHg 39%
    13:00 +23°C° 0 mm 2 mps 753 mmHg 36%
    14:00 +24°C° 0 mm 2 mps 752 mmHg 37%
    15:00 +24°C° 0 mm 3 mps 751 mmHg 38%
    16:00 +24°C° 0 mm 3 mps 751 mmHg 39%
    17:00 +21°C° 0 mm 3 mps 751 mmHg 47%
    18:00 +19°C° 0 mm 3 mps 750 mmHg 56%
    19:00 +17°C° 0 mm 3 mps 750 mmHg 65%
    20:00 +16°C° 0 mm 2 mps 750 mmHg 70%
    21:00 +15°C° 0 mm 2 mps 750 mmHg 75%
    22:00 +14°C° 0 mm 2 mps 750 mmHg 81%
    23:00 +14°C° 0 mm 2 mps 750 mmHg 82%

    22 September, Sunday

    Time Temperature Precipitation Wind Pressure Humidity
    00:00 +14°C° 0 mm 2 mps 749 mmHg 83%
    01:00 +13°C° 0 mm 2 mps 749 mmHg 84%
    02:00 +13°C° 0 mm 1 mps 749 mmHg 84%
    03:00 +13°C° 0 mm 1 mps 749 mmHg 84%
    04:00 +13°C° 0 mm 1 mps 749 mmHg 84%
    05:00 +13°C° 0 mm 1 mps 749 mmHg 82%
    06:00 +13°C° 0 mm 1 mps 749 mmHg 80%
    07:00 +12°C° 0 mm 0 mps 748 mmHg 79%
    08:00 +14°C° 0 mm 0 mps 748 mmHg 73%
    09:00 +18°C° 0 mm 1 mps 748 mmHg 67%
    10:00 +20°C° 0 mm 1 mps 748 mmHg 62%
    11:00 +20°C° 0 mm 1 mps 748 mmHg 61%
    12:00 +21°C° 0 mm 1 mps 748 mmHg 60%
    13:00 +22°C° 0 mm 1 mps 747 mmHg 59%
    14:00 +22°C° 0 mm 1 mps 747 mmHg 59%
    15:00 +23°C° 0 mm 1 mps 746 mmHg 58%
    16:00 +23°C° 0 mm 2 mps 746 mmHg 57%
    17:00 +21°C° 0 mm 2 mps 745 mmHg 62%
    18:00 +19°C° 0 mm 2 mps 745 mmHg 66%
    19:00 +18°C° 0 mm 2 mps 745 mmHg 70%
    20:00 +19°C° 0 mm 1 mps 745 mmHg 72%
    21:00 +18°C° 0 mm 1 mps 745 mmHg 73%
    22:00 +18°C° 0 mm 1 mps 745 mmHg 74%
    23:00 +17°C° 0.3 mm 2 mps 745 mmHg 77%

    23 September, Monday

    Time Temperature Precipitation Wind Pressure Humidity
    00:00 +17°C° 0.3 mm 4 mps 746 mmHg 80%
    01:00 +16°C° 0.3 mm 5 mps 747 mmHg 83%
    02:00 +15°C° 0.5 mm 5 mps 747 mmHg 85%
    03:00 +15°C° 0.5 mm 6 mps 747 mmHg 88%
    04:00 +14°C° 0.5 mm 6 mps 748 mmHg 90%
    05:00 +14°C° 1 mm 5 mps 748 mmHg 91%
    06:00 +14°C° 1 mm 4 mps 749 mmHg 92%
    07:00 +14°C° 1 mm 4 mps 749 mmHg 93%
    08:00 +14°C° 1 mm 4 mps 749 mmHg 93%
    09:00 +14°C° 1 mm 4 mps 750 mmHg 92%
    10:00 +14°C° 1 mm 4 mps 750 mmHg 92%
    11:00 +15°C° 0.3 mm 4 mps 750 mmHg 89%
    12:00 +15°C° 0.3 mm 4 mps 750 mmHg 87%
    13:00 +15°C° 0.3 mm 4 mps 751 mmHg 84%
    14:00 +17°C° 0.1 mm 4 mps 750 mmHg 81%
    15:00 +17°C° 0.1 mm 4 mps 750 mmHg 77%
    16:00 +18°C° 0.1 mm 4 mps 750 mmHg 73%
    17:00 +17°C° 0 mm 3 mps 750 mmHg 77%
    18:00 +16°C° 0 mm 2 mps 751 mmHg 81%
    19:00 +15°C° 0 mm 2 mps 751 mmHg 85%
    20:00 +14°C° 0 mm 2 mps 751 mmHg 85%
    21:00 +14°C° 0 mm 2 mps 752 mmHg 86%
    22:00 +14°C° 0 mm 2 mps 752 mmHg 86%
    23:00 +14°C° 0 mm 2 mps 752 mmHg 88%

    24 September, Tuesday

    Time Temperature Precipitation Wind Pressure Humidity
    00:00 +13°C° 0 mm 2 mps 752 mmHg 89%
    01:00 +13°C° 0 mm 2 mps 752 mmHg 91%
    02:00 +13°C° 0 mm 2 mps 752 mmHg 91%
    03:00 +12°C° 0 mm 2 mps 752 mmHg 92%
    04:00 +12°C° 0 mm 1 mps 752 mmHg 92%
    05:00 +12°C° 0 mm 1 mps 752 mmHg 91%
    06:00 +12°C° 0 mm 1 mps 752 mmHg 91%
    07:00 +12°C° 0 mm 1 mps 752 mmHg 90%
    08:00 +14°C° 0 mm 1 mps 751 mmHg 82%
    09:00 +16°C° 0 mm 1 mps 751 mmHg 73%
    10:00 +19°C° 0 mm 1 mps 751 mmHg 64%
    11:00 +20°C° 0 mm 1 mps 750 mmHg 60%
    12:00 +21°C° 0 mm 1 mps 750 mmHg 55%
    13:00 +22°C° 0 mm 1 mps 749 mmHg 50%
    14:00 +21°C° 0 mm 2 mps 749 mmHg 51%
    15:00 +21°C° 0 mm 2 mps 749 mmHg 52%
    16:00 +21°C° 0 mm 2 mps 749 mmHg 52%
    17:00 +19°C° 0.1 mm 2 mps 749 mmHg 61%
    18:00 +18°C° 0.1 mm 2 mps 749 mmHg 70%
    19:00 +16°C° 0.1 mm 2 mps 749 mmHg 79%
    20:00 +16°C° 0 mm 2 mps 748 mmHg 80%
    21:00 +16°C° 0 mm 3 mps 748 mmHg 80%
    22:00 +14°C° 0 mm 3 mps 748 mmHg 81%
    23:00 +14°C° 0.8 mm 3 mps 748 mmHg 84%
    Show more